sat.trackr.live / text

‹ back to catalog

COSMOS 2463

NORAD 36519 · 2010-017A

PAYLOAD ACTIVE UNKNOWN

§ Identity

Operator
Country
CIS
Launch date
2010-04-27
Launch site
PLMSC
Launch vehicle
Mass (kg)
RCS (m²)
1.70

Purposes: nav

External: N2YO · Heavens-Above · Gunter

§ Orbital elements

Epoch: 2026-09-19T03:28:03.083232Z

Period
104.98 min
Inclination
82.9644°
Eccentricity
0.0034946
Mean motion
13.71670614 rev/d
Perigee alt
967.8 km
Apogee alt
1,019.3 km
Semi-major
7,371.7 km
B*
4.2026e-5
RAAN
180.6805°
Arg perigee
228.0560°
Mean anomaly
199.5303°
Rev number
82,081

§ Raw data

COSMOS 24631 36519U 10017A   26262.14448013  .00000053  00000+0  42026-4 0  99912 36519  82.9644 180.6805 0034946 228.0560 199.5303 13.71670614820811

JSON: /api/v1/satellites/36519 · /tle

For live sub-satellite position, see the globe view (requires WebGL).

§ Visibility from observer

Set your observer location to see the next 7 days of passes ≥ 10°. The values pass through the URL so the page stays shareable.

No JS? Fill the form by hand. The geolocation button needs JavaScript.

§ Radio — SatNOGS DB

ModeDescriptionDownlinkUplink
CW Mode U Tracking Beacon 399.840 MHz
FSK Mode V 3FSK 149.940 MHz

2 transmitters · refreshed weekly from db.satnogs.org